Retour au catalogue

COSMOS 980

ActifMilitaireLEO
NORAD 10587·PAYLOAD·🇷🇺 Russia

Lancé Jan 10, 1978 depuis Plesetsk Cosmodrome

Loading…

Prochains Passages (prochaines 24 heures)

TLE

FraisSource: Space-Track

Époque: Sep 14, 2026, 09:56 UTC

1 10587U 78005E   26257.41452711 -.00000022  00000-0 -40707-4 0  9996
2 10587  74.0275 259.5836 0008798 270.2128 159.3762 12.48950085213898

Suivez COSMOS 980 en temps réel avec AllMySat

Download on the App Store